GFSFLT2_850_temp_192.txt.gz
Temp
18 18 18 18 18 18 17 17 17 17 17 17 17 17 17 17 16 16 16 16 16 16 16 16 16 16 16 16 15 15 15 14
18 17 18 18 18 17 16 17 16 16 16 16 16 17 17 17 16 15 16 16 16 16 16 16 16 16 16 15 14 14 14 13
17 16 16 18 17 17 16 17 16 16 16 16 16 16 16 16 15 15 15 16 17 16 16 16 16 15 15 14 14 13 13 12
16 15 15 17 17 16 16 17 15 16 16 16 16 16 15 15 15 15 15 16 16 16 16 15 15 15 14 13 13 13 12 12
19 16 15 15 14 15 14 14 14 14 15 15 15 13 13 13 14 15 15 15 16 16 16 15 15 14 13 12 12 12 12 11
19 19 16 15 14 14 14 15 14 15 14 13 13 13 12 12 13 14 15 15 15 15 15 14 13 12 12 12 11 12 11 11
20 20 18 17 15 15 14 14 14 13 14 14 13 13 13 12 13 14 14 15 15 15 14 14 12 12 12 12 11 11 11 11
21 20 19 18 16 15 15 15 15 14 13 13 13 13 12 12 12 12 14 14 14 14 13 13 13 12 12 10 10 10 11 11
22 21 20 19 18 16 15 15 15 14 14 14 13 13 12 12 12 12 13 12 12 12 11 12 11 11 10 9 9 9 9 10
23 22 21 20 19 17 15 15 14 14 14 14 13 13 12 12 12 11 11 11 12 11 11 11 10 10 9 9 8 8 8 9
22 21 21 20 19 18 15 14 14 14 14 14 14 13 13 12 11 11 11 11 11 11 11 11 10 8 8 8 8 7 7 6
20 19 19 19 18 17 15 14 14 14 13 14 14 14 13 12 11 12 11 11 10 10 10 9 10 9 8 6 7 7 6 5
18 18 17 17 18 17 16 15 14 13 14 13 13 13 13 12 12 10 11 10 10 10 10 9 8 8 7 6 5 5 5 5
16 17 17 15 14 16 16 16 15 14 13 13 13 12 12 13 12 11 10 10 10 10 9 9 8 7 7 6 4 4 4 4
14 14 16 17 15 13 15 13 13 13 13 12 12 12 12 12 12 11 10 10 10 10 10 9 8 7 8 9 4 5 4 4
14 14 13 13 15 13 12 13 13 13 13 13 12 12 11 11 12 11 10 10 9 9 10 9 8 8 7 9 9 9 5 3
13 12 12 12 12 12 11 10 12 12 12 12 12 12 11 10 11 11 10 9 9 9 9 9 8 9 9 8 8 8 8 6
13 12 12 11 11 11 11 11 11 10 10 11 11 11 11 10 10 10 9 8 8 8 9 9 8 7 8 8 8 8 7 8
12 12 12 11 11 10 10 9 8 10 10 9 9 10 10 10 10 9 8 7 7 7 7 8 7 7 8 8 8 8 7 8
11 11 10 10 10 10 9 9 8 8 9 10 10 8 10 10 10 9 8 7 6 7 6 7 7 6 7 7 7 7 7 7

GFSFLT2_850_temp_195.txt.gz
Temp
19 18 19 18 18 18 18 18 18 17 17 17 17 17 17 17 17 17 17 17 17 17 17 17 16 16 16 16 15 14 14 14
19 18 18 18 18 18 17 17 17 17 17 17 17 17 16 17 17 17 17 17 17 17 17 16 16 16 16 15 14 14 14 13
18 18 17 17 17 17 17 16 16 16 16 16 16 16 16 17 17 16 16 16 16 16 16 17 16 16 15 15 13 14 14 13
21 20 19 17 17 17 17 16 16 15 15 16 15 16 16 16 17 16 16 16 16 16 16 16 16 16 15 14 13 13 13 13
21 21 20 20 18 17 17 16 15 15 14 15 15 15 15 15 15 16 16 16 16 16 16 16 16 15 14 13 13 13 13 13
22 21 21 21 20 18 17 17 15 14 14 14 13 13 13 13 13 15 15 16 15 16 15 15 15 14 13 13 12 12 12 12
22 21 21 20 20 19 17 15 15 14 14 13 13 13 13 13 13 14 15 15 15 15 15 15 14 14 12 13 12 12 12 12
21 21 21 21 20 19 18 16 15 15 15 14 13 13 12 12 12 12 13 14 14 14 14 14 14 14 12 12 11 11 11 11
22 22 22 21 20 18 18 17 15 14 14 14 14 13 13 12 13 12 12 13 13 13 13 13 13 12 11 11 12 10 10 11
21 20 21 20 20 19 18 17 16 15 14 14 14 13 13 13 12 13 12 12 12 12 12 12 12 12 11 10 10 10 10 10
18 18 19 19 18 18 17 16 15 15 15 15 15 14 14 13 13 13 12 12 12 12 11 11 11 11 10 9 9 9 9 9
18 17 16 16 16 15 15 15 15 15 15 15 15 14 14 13 13 13 12 11 11 11 11 10 10 10 9 8 8 8 8 8
17 16 15 14 13 13 13 14 15 15 15 15 14 15 14 13 13 13 12 11 11 11 11 10 9 9 9 7 7 6 6 6
18 17 16 15 14 14 14 13 13 14 14 13 14 13 14 13 13 13 12 11 11 10 11 10 9 8 8 7 5 5 5 5
14 16 15 15 13 12 13 12 12 12 12 13 13 13 13 13 13 12 12 10 11 10 10 10 9 8 8 9 4 5 4 4
14 13 13 14 15 13 11 11 11 11 11 11 11 12 12 12 12 12 12 11 11 10 9 10 9 8 7 9 10 10 5 3
13 12 12 12 12 13 12 11 11 10 10 10 10 9 11 11 11 12 11 11 11 8 8 8 9 9 8 8 8 8 10 5
13 13 12 11 11 11 11 11 10 10 9 9 9 9 9 9 10 10 11 10 10 8 7 8 7 8 8 8 8 8 8 7
11 11 11 11 11 10 10 10 11 10 10 9 8 8 8 8 9 8 9 10 10 8 7 7 7 7 8 8 8 8 9 7
11 10 10 10 10 10 10 9 9 9 9 9 8 7 7 7 6 7 7 8 9 9 7 7 6 5 6 7 8 8 8 8

GFSFLT2_850_temp_198.txt.gz
Temp
20 19 19 19 19 19 19 18 18 18 18 18 17 17 17 17 17 18 18 17 18 17 17 17 16 16 15 14 14 14 14 13
20 18 18 19 19 19 18 18 18 17 17 17 17 16 16 16 17 17 17 17 17 17 17 17 17 16 16 15 14 14 14 13
21 20 19 18 18 18 18 18 18 17 17 16 16 16 16 16 16 17 17 16 16 16 16 16 16 16 16 15 15 14 13 13
22 21 20 19 18 18 18 18 17 17 17 17 16 16 16 16 16 17 17 17 16 16 16 16 16 15 16 15 15 14 14 13
23 22 21 20 20 19 18 17 17 17 17 16 16 15 15 16 16 16 17 16 16 15 16 16 16 15 15 15 14 14 14 13
23 22 20 20 20 20 18 17 17 17 16 15 14 13 14 14 14 15 16 16 15 15 15 15 15 14 14 14 13 14 14 13
22 21 21 20 20 20 19 19 17 17 16 14 13 13 13 13 13 14 15 15 14 14 14 15 14 13 14 13 13 13 13 12
22 22 21 20 20 19 19 18 18 18 17 16 14 13 13 13 12 13 15 15 14 14 14 14 14 13 13 13 12 12 12 11
21 20 20 19 18 18 18 17 17 16 16 15 14 13 13 13 12 12 12 13 13 13 13 13 13 12 12 12 12 11 11 11
22 20 18 18 17 16 16 16 16 16 16 15 15 14 13 13 13 12 12 13 13 13 13 13 13 12 12 12 11 10 10 10
20 19 17 16 16 16 15 15 15 15 15 15 15 15 15 14 13 13 13 13 13 13 13 13 13 11 10 11 11 10 10 10
19 18 16 15 15 15 15 14 14 14 15 14 14 15 14 14 14 13 13 13 12 12 12 12 12 11 10 10 10 10 9 9
17 17 15 15 15 14 14 15 14 13 13 13 14 14 14 14 13 13 13 12 12 13 13 11 11 10 10 8 8 7 7 7
16 16 15 15 15 15 15 14 12 13 13 13 13 13 13 13 13 13 13 13 12 11 11 11 10 9 9 8 5 5 5 6
14 14 14 14 14 14 14 14 13 13 13 12 12 11 12 12 11 12 12 13 13 12 12 10 10 10 9 10 5 6 4 4
14 13 13 13 13 13 13 13 13 12 11 11 11 11 11 10 10 11 11 11 11 12 11 10 8 10 7 8 9 9 5 3
13 12 12 12 12 12 11 11 12 11 10 10 10 10 11 11 10 10 10 9 11 11 11 9 7 8 8 9 8 9 9 6
12 12 11 11 11 11 11 10 11 10 10 10 10 9 9 10 10 10 9 9 8 9 8 8 7 7 7 7 7 7 8 8
11 11 11 11 10 10 9 9 9 9 8 9 9 9 9 8 7 7 7 8 7 7 8 8 6 6 8 6 6 6 7 8
11 10 10 10 9 9 8 8 8 8 8 8 8 8 8 8 6 6 6 5 6 6 6 7 7 6 6 6 5 5 5 6

GFSFLT2_850_temp_204.txt.gz
Temp
21 20 19 19 19 19 19 19 19 18 18 18 18 17 17 17 17 17 17 16 16 17 17 17 17 17 17 16 15 14 14 14
20 20 19 19 18 18 18 18 18 18 18 17 17 17 17 17 17 17 17 17 16 16 16 17 16 17 17 17 15 15 14 14
20 19 19 19 18 18 18 18 18 18 17 17 17 17 17 17 17 16 16 16 16 15 16 17 16 16 16 16 16 15 15 15
21 20 19 19 18 18 18 17 17 17 17 17 17 17 16 16 16 16 16 15 15 15 15 15 16 16 15 15 16 15 15 15
21 20 19 19 19 18 18 17 17 17 16 16 16 16 16 16 15 15 15 15 15 15 14 15 15 16 15 15 15 15 15 14
21 20 19 19 18 18 17 17 16 16 16 16 16 16 16 15 15 14 14 14 14 14 14 14 14 15 15 15 14 15 15 14
21 20 19 19 19 18 18 18 17 16 16 16 16 15 15 15 15 14 14 14 14 13 12 12 13 14 15 15 15 14 13 13
21 20 20 19 19 18 18 18 18 17 16 15 15 15 15 14 14 12 13 13 13 14 14 13 12 12 13 14 14 14 13 12
21 20 20 19 18 18 18 18 17 17 16 15 15 14 14 14 14 14 14 14 14 13 13 13 13 13 13 13 14 13 12 12
22 21 20 19 18 17 17 16 16 15 15 15 14 14 14 14 13 14 14 13 13 13 12 12 12 12 13 13 13 14 13 11
21 21 20 18 17 16 16 15 15 14 15 14 14 14 13 13 13 14 13 13 13 13 13 12 12 12 12 12 12 13 13 12
21 20 18 16 16 15 15 14 14 14 14 14 13 13 13 13 13 12 12 12 12 12 12 12 12 12 12 11 11 11 12 11
19 17 15 15 15 14 14 15 15 14 14 13 13 12 12 12 12 12 11 12 12 12 12 12 13 12 12 11 10 10 10 10
15 14 14 14 14 14 14 14 14 14 14 13 13 13 12 11 11 11 11 11 12 10 10 11 11 11 11 9 6 7 7 7
15 14 14 14 14 14 14 14 13 13 12 12 11 11 11 11 11 11 11 10 10 10 10 10 9 10 10 9 6 6 7 7
14 14 14 13 13 13 13 13 12 12 11 11 11 10 10 10 10 10 10 10 10 9 9 9 9 7 8 8 8 8 6 5
13 13 13 12 12 12 12 11 11 10 10 9 9 9 9 9 9 9 9 9 9 9 9 8 8 8 7 7 7 7 6 7
12 12 12 12 11 11 11 10 10 9 9 9 9 9 9 9 9 9 9 9 8 8 8 7 7 7 7 7 6 6 6 6
11 11 11 11 10 10 10 9 9 9 9 9 9 8 8 8 8 8 9 9 9 7 6 5 5 5 5 5 5 5 6 5
11 11 10 10 10 9 9 9 9 8 8 8 7 6 6 7 8 8 8 7 7 6 4 4 4 4 4 4 4 4 4 5